Weather History for Hot Springs, VA

Change the Weather History Date:

Thursday, November 24, 2011

  Actual Average Record
Temperature  
Mean Temperature 41 °F -  
Max Temperature 50 °F 43 °F 60 °F (1999)
Min Temperature 32 °F 30 °F 6 °F (2013)
Degree Days  
Heating Degree Days 24    
Moisture  
Dew Point 26 °F    
Average Humidity 58    
Maximum Humidity 81    
Minimum Humidity 42    
Precipitation  
Precipitation 0.00 in - - ()
Sea Level Pressure  
Sea Level Pressure 30.28 in    
Wind  
Wind Speed 15 mph (WNW)    
Max Wind Speed 20 mph    
Max Gust Speed 26 mph    
Visibility 10 miles    
Events      
Averages and records for this station are not official NWS values.
T = Trace of Precipitation, MM = Missing Value Source: NWS Daily Summary

Daily Weather History Graph

Daily Weather History Graph

Search for Another Location

Airport:

Trip Planner

Search our weather history database for the weather conditions in past years. The results will help you decide how hot, cold, wet, or windy it might be!

Date:

Astronomy

Nov. 24, 2011 Rise Set
Actual Time 7:09 AM EST 5:02 PM EST
Civil Twilight 6:40 AM EST 5:31 PM EST
Nautical Twilight 6:08 AM EST 6:03 PM EST
Astronomical Twilight 5:36 AM EST 6:34 PM EST
Moon 6:24 AM EST (11/24) 4:32 PM EST (11/24)
Length of Visible Light 10h 50m
Length of Day
9h 53m
Waning Crescent, 0% of the Moon is Illuminated
Nov 24
Waning Crescent
Nov 25
New
Dec 2
First Quarter
Dec 10
Full
Dec 17
Last Quarter

Hourly Weather History & Observations

Time (EST) Temp. Windchill Dew Point Humidity Pressure Visibility Wind Dir Wind Speed Gust Speed Precip Events Conditions
12:15 AM 33.8 °F 22.5 °F 28.4 °F 81% 30.16 in 10.0 mi NW 19.6 mph 26.5 mph N/A   Clear
12:35 AM 33.8 °F 22.8 °F 28.4 °F 81% 30.16 in 10.0 mi WNW 18.4 mph - N/A   Clear
12:55 AM 33.8 °F 22.5 °F 26.6 °F 75% 30.16 in 10.0 mi WNW 19.6 mph 26.5 mph N/A   Clear
1:15 AM 33.8 °F 23.2 °F 26.6 °F 75% 30.16 in 10.0 mi WNW 17.3 mph 23.0 mph N/A   Clear
1:35 AM 33.8 °F 23.5 °F 26.6 °F 75% 30.17 in 10.0 mi WNW 16.1 mph 21.9 mph N/A   Clear
1:55 AM 33.8 °F 23.9 °F 26.6 °F 75% 30.18 in 10.0 mi WNW 15.0 mph 23.0 mph N/A   Clear
2:15 AM 33.8 °F 24.3 °F 24.8 °F 70% 30.19 in 10.0 mi WNW 13.8 mph - N/A   Clear
2:35 AM 33.8 °F 22.8 °F 24.8 °F 70% 30.19 in 10.0 mi WNW 18.4 mph 23.0 mph N/A   Clear
2:55 AM 33.8 °F 22.8 °F 24.8 °F 70% 30.19 in 10.0 mi NW 18.4 mph 23.0 mph N/A   Clear
3:15 AM 33.8 °F 23.9 °F 24.8 °F 70% 30.20 in 10.0 mi WNW 15.0 mph 24.2 mph N/A   Clear
3:35 AM 32.0 °F 21.2 °F 24.8 °F 75% 30.20 in 10.0 mi WNW 16.1 mph - N/A   Clear
4:15 AM 33.8 °F 23.9 °F 24.8 °F 70% 30.21 in 10.0 mi WNW 15.0 mph - N/A   Clear
4:35 AM 33.8 °F 24.3 °F 23.0 °F 65% 30.21 in 10.0 mi WNW 13.8 mph - N/A   Clear
4:55 AM 33.8 °F 24.3 °F 23.0 °F 65% 30.22 in 10.0 mi WNW 13.8 mph - N/A   Clear
5:15 AM 32.0 °F 22.1 °F 24.8 °F 75% 30.23 in 10.0 mi WNW 13.8 mph - N/A   Clear
5:35 AM 33.8 °F 22.8 °F 21.2 °F 60% 30.23 in 10.0 mi WNW 18.4 mph - N/A   Clear
5:55 AM 33.8 °F 23.5 °F 21.2 °F 60% 30.24 in 10.0 mi WNW 16.1 mph 21.9 mph N/A   Clear
6:15 AM 33.8 °F 23.2 °F 21.2 °F 60% 30.24 in 10.0 mi WNW 17.3 mph 20.7 mph N/A   Clear
6:55 AM 32.0 °F 20.5 °F 21.2 °F 64% 30.26 in 10.0 mi WNW 18.4 mph - N/A   Clear
7:15 AM 33.8 °F 22.5 °F 21.2 °F 60% 30.27 in 10.0 mi WNW 19.6 mph - N/A   Clear
7:35 AM 33.8 °F 23.2 °F 21.2 °F 60% 30.28 in 10.0 mi WNW 17.3 mph - N/A   Clear
7:55 AM 35.6 °F 26.2 °F 19.4 °F 52% 30.29 in 10.0 mi WNW 15.0 mph - N/A   Clear
8:15 AM 35.6 °F 26.2 °F 19.4 °F 52% 30.30 in 10.0 mi WNW 15.0 mph 19.6 mph N/A   Clear
8:35 AM 37.4 °F 28.5 °F 19.4 °F 48% 30.30 in 10.0 mi WNW 15.0 mph - N/A   Clear
8:55 AM 37.4 °F 28.2 °F 21.2 °F 52% 30.30 in 10.0 mi WNW 16.1 mph - N/A   Clear
9:15 AM 37.4 °F 28.2 °F 21.2 °F 52% 30.30 in 10.0 mi WNW 16.1 mph - N/A   Clear
9:35 AM 37.4 °F 28.9 °F 21.2 °F 52% 30.30 in 10.0 mi West 13.8 mph - N/A   Clear
9:55 AM 37.4 °F 29.3 °F 23.0 °F 56% 30.31 in 10.0 mi West 12.7 mph - N/A   Clear
10:15 AM 39.2 °F 31.6 °F 24.8 °F 56% 30.32 in 10.0 mi West 12.7 mph - N/A   Clear
10:35 AM 41.0 °F 34.3 °F 24.8 °F 53% 30.32 in 10.0 mi West 11.5 mph - N/A   Clear
10:55 AM 41.0 °F 34.3 °F 26.6 °F 57% 30.32 in 10.0 mi West 11.5 mph - N/A   Clear
11:15 AM 42.8 °F 36.6 °F 26.6 °F 53% 30.32 in 10.0 mi WNW 11.5 mph - N/A   Clear
11:35 AM 42.8 °F 36.2 °F 26.6 °F 53% 30.32 in 10.0 mi WNW 12.7 mph - N/A   Clear
11:55 AM 44.6 °F 38.8 °F 26.6 °F 49% 30.31 in 10.0 mi West 11.5 mph - N/A   Clear
12:15 PM 44.6 °F 38.4 °F 28.4 °F 53% 30.31 in 10.0 mi WNW 12.7 mph - N/A   Clear
12:35 PM 46.4 °F 41.1 °F 30.2 °F 53% 30.31 in 10.0 mi West 11.5 mph - N/A   Clear
12:55 PM 46.4 °F 42.4 °F 30.2 °F 53% 30.31 in 10.0 mi West 8.1 mph - N/A   Clear
1:15 PM 48.2 °F - 30.2 °F 50% 30.31 in 10.0 mi West 9.2 mph - N/A   Clear
1:35 PM 48.2 °F - 30.2 °F 50% 30.31 in 10.0 mi West 8.1 mph - N/A   Clear
2:15 PM 48.2 °F - 30.2 °F 50% 30.31 in 10.0 mi West 11.5 mph - N/A   Clear
2:35 PM 48.2 °F - 30.2 °F 50% 30.32 in 10.0 mi West 10.4 mph - N/A   Clear
3:15 PM 50.0 °F - 30.2 °F 47% 30.32 in 10.0 mi West 10.4 mph - N/A   Clear
3:35 PM 50.0 °F - 30.2 °F 47% 30.33 in 10.0 mi West 9.2 mph - N/A   Clear
3:55 PM 48.2 °F - 30.2 °F 50% 30.33 in 10.0 mi West 10.4 mph - N/A   Clear
4:15 PM 48.2 °F - 30.2 °F 50% 30.33 in 10.0 mi West 9.2 mph - N/A   Clear
4:35 PM 48.2 °F - 30.2 °F 50% 30.34 in 10.0 mi West 9.2 mph - N/A   Clear
4:55 PM 46.4 °F 41.5 °F 30.2 °F 53% 30.34 in 10.0 mi WNW 10.4 mph - N/A   Clear
5:15 PM 46.4 °F 41.5 °F 30.2 °F 53% 30.34 in 10.0 mi West 10.4 mph - N/A   Clear
5:35 PM 44.6 °F 38.8 °F 30.2 °F 57% 30.34 in 10.0 mi West 11.5 mph - N/A   Clear
5:55 PM 44.6 °F 38.1 °F 30.2 °F 57% 30.34 in 10.0 mi West 13.8 mph - N/A   Clear
6:15 PM 44.6 °F 38.4 °F 30.2 °F 57% 30.34 in 10.0 mi West 12.7 mph - N/A   Clear
6:35 PM 44.6 °F 38.1 °F 30.2 °F 57% 30.34 in 10.0 mi West 13.8 mph - N/A   Clear
6:55 PM 44.6 °F 38.1 °F 28.4 °F 53% 30.34 in 10.0 mi West 13.8 mph - N/A   Clear
7:15 PM 42.8 °F 35.8 °F 28.4 °F 57% 30.35 in 10.0 mi West 13.8 mph - N/A   Clear
7:35 PM 42.8 °F 36.2 °F 28.4 °F 57% 30.35 in 10.0 mi West 12.7 mph - N/A   Clear
7:55 PM 42.8 °F 36.2 °F 26.6 °F 53% 30.35 in 10.0 mi West 12.7 mph - N/A   Clear
8:35 PM 42.8 °F 36.6 °F 24.8 °F 49% 30.34 in 10.0 mi West 11.5 mph - N/A   Clear
8:55 PM 42.8 °F 36.6 °F 21.2 °F 42% 30.34 in 10.0 mi West 11.5 mph - N/A   Clear
9:15 PM 41.0 °F 34.7 °F 21.2 °F 45% 30.34 in 10.0 mi West 10.4 mph - N/A   Clear
9:35 PM 39.2 °F 32.0 °F 21.2 °F 49% 30.34 in 10.0 mi West 11.5 mph - N/A   Clear
9:55 PM 39.2 °F 32.5 °F 23.0 °F 52% 30.34 in 10.0 mi West 10.4 mph - N/A   Clear
10:15 PM 39.2 °F 31.6 °F 24.8 °F 56% 30.34 in 10.0 mi West 12.7 mph - N/A   Clear
10:35 PM 39.2 °F 31.6 °F 24.8 °F 56% 30.34 in 10.0 mi West 12.7 mph - N/A   Clear
10:55 PM 39.2 °F 31.6 °F 24.8 °F 56% 30.34 in 10.0 mi West 12.7 mph - N/A   Clear
11:15 PM 39.2 °F 32.0 °F 26.6 °F 61% 30.34 in 10.0 mi West 11.5 mph - N/A   Clear
11:35 PM 39.2 °F 31.6 °F 28.4 °F 65% 30.34 in 10.0 mi West 12.7 mph - N/A   Clear